Location: De Forest
(43.2480°N, 89.3440°W)
Time: 04:38:54
(UTC-05:00)

Tiangong 2 - Pass Details

Date: 26 May 2019
Orbit: 376 x 389 km, 42.8° (Epoch: 19 June)

Event Time Altitude Azimuth Distance (km) Brightness Sun altitude
Rises 20:53:52 0° 270° (W) 2,239 5.9 -5.2°
Reaches altitude 10° 20:55:56 10° 269° (W) 1,386 4.8 -5.5°
Maximum altitude 20:59:03 84° 182° (S) 382 1.0 -5.9°
Drops below altitude 10° 21:02:10 10° 94° (E) 1,381 3.4 -6.4°
Enters shadow 21:03:07 - 93° (E) 1,773 3.9 -6.5°
